EW3244 Weather Reports


Display with metric or nautical units.
time (UTC)temp
F
wind
direction
speed
MPH
gust
MPH
rain 1hr
in
rain 24hr
in
rain mn
in
humidity
%
barometer
mb
20260903014501 50 66 5.0 0.0 0.00 0.00 0.00 82 1007.3
20260903013103 50 45 3.0 7.0 0.00 0.01 0.00 82 1007.5
20260903011609 50 46 2.0 9.0 0.00 0.01 0.00 82 1007.6
20260903010116 51 51 8.0 11.0 0.00 0.01 0.00 82 1007.5
20260903004555 51 43 8.0 12.0 0.00 0.01 0.00 82 1007.5
20260903003053 51 37 6.0 12.0 0.00 0.01 0.00 82 1007.6
20260903001551 51 48 5.0 11.0 0.00 0.01 0.00 82 1007.7
20260903000049 51 44 4.0 11.0 0.00 0.01 0.00 82 1007.7
20260902234547 51 43 5.0 9.0 0.00 0.01 0.00 82 1007.7
20260902233044 50 47 2.0 6.0 0.00 0.01 0.00 82 1007.8
20260902231551 51 55 4.0 7.0 0.00 0.01 0.00 82 1007.9
20260902230039 50 47 2.0 5.0 0.00 0.01 0.00 82 1008.0
20260902224551 50 50 0.0 4.0 0.00 0.01 0.00 81 1008.1
20260902223046 51 46 0.0 3.0 0.00 0.01 0.00 81 1008.1
20260902221537 52 33 0.0 4.0 0.00 0.01 0.00 79 1008.1
20260902220047 53 56 3.0 8.0 0.00 0.01 0.00 78 1008.2
20260902214526 53 52 6.0 14.0 0.00 0.01 0.01 78 1008.2
20260902213023 52 45 3.0 5.0 0.00 0.01 0.01 78 1008.2
20260902211526 54 47 3.0 9.0 0.00 0.01 0.01 75 1008.1
20260902210023 54 59 6.0 11.0 0.00 0.01 0.01 75 1008.2
20260902204524 53 34 3.0 7.0 0.00 0.01 0.01 76 1008.1
20260902203020 55 46 2.0 7.0 0.00 0.01 0.01 72 1008.1
20260902201538 56 57 4.0 8.0 0.00 0.01 0.01 70 1007.9
20260902200019 56 45 4.0 8.0 0.00 0.01 0.01 70 1008.0
20260902194529 56 55 4.0 8.0 0.00 0.01 0.01 70 1008.0
20260902193035 56 31 2.0 4.0 0.00 0.01 0.01 69 1008.0
20260902191519 56 47 4.0 7.0 0.00 0.01 0.01 68 1008.0
20260902190016 56 35 2.0 6.0 0.00 0.01 0.01 66 1007.9
20260902184517 57 43 1.0 5.0 0.00 0.01 0.01 64 1007.8
20260902183020 59 54 3.0 6.0 0.00 0.01 0.01 61 1007.7
20260902181513 60 60 2.0 7.0 0.00 0.01 0.01 60 1007.6
20260902180012 60 59 4.0 9.0 0.00 0.01 0.01 58 1007.6
20260902174512 61 78 5.0 12.0 0.00 0.01 0.01 56 1007.5
20260902173015 62 80 5.0 13.0 0.00 0.01 0.01 55 1007.4
20260902171510 63 50 6.0 13.0 0.00 0.01 0.01 55 1007.4
20260902170008 63 60 5.0 11.0 0.00 0.01 0.01 55 1007.4
20260902164507 64 73 6.0 12.0 0.00 0.01 0.01 55 1007.2
20260902163005 64 72 3.0 9.0 0.00 0.01 0.01 54 1007.2
20260902161505 64 55 2.0 9.0 0.00 0.01 0.01 54 1007.3
20260902160006 65 52 5.0 14.0 0.00 0.01 0.01 52 1007.2
20260902154505 66 54 9.0 15.0 0.00 0.01 0.01 49 1007.3
20260902153004 66 36 8.0 17.0 0.00 0.01 0.01 47 1007.3
20260902151600 67 93 10.0 16.0 0.00 0.01 0.01 46 1007.4
20260902150100 68 73 7.0 15.0 0.00 0.01 0.01 46 1007.5
20260902144603 68 77 7.0 15.0 0.00 0.01 0.01 47 1007.4
20260902143058 68 76 8.0 17.0 0.00 0.01 0.01 46 1007.5
20260902141558 68 59 5.0 13.0 0.00 0.01 0.01 48 1007.5
20260902140055 68 79 10.0 18.0 0.00 0.01 0.01 47 1007.6
20260902134556 67 46 8.0 17.0 0.00 0.01 0.01 48 1007.6
20260902133051 68 53 10.0 17.0 0.00 0.01 0.01 50 1007.5
20260902131553 68 59 10.0 16.0 0.00 0.01 0.01 50 1007.5
20260902130048 68 58 7.0 20.0 0.00 0.01 0.01 54 1007.5
20260902124546 68 70 10.0 19.0 0.00 0.01 0.01 53 1007.5
20260902123051 69 51 8.0 16.0 0.00 0.01 0.01 54 1007.5
20260902121540 68 55 7.0 13.0 0.00 0.01 0.01 58 1007.6
20260902120037 67 52 7.0 13.0 0.00 0.01 0.01 64 1007.6
20260902114540 65 69 8.0 15.0 0.00 0.01 0.01 68 1007.8
20260902113037 66 44 7.0 11.0 0.00 0.01 0.01 68 1007.8
20260902111534 63 47 4.0 13.0 0.00 0.01 0.01 72 1007.9
20260902110041 67 45 7.0 16.0 0.00 0.01 0.01 67 1007.9
20260902104531 67 74 8.0 17.0 0.00 0.01 0.01 67 1008.0
20260902103029 66 50 7.0 13.0 0.00 0.01 0.01 71 1008.1
20260902101533 66 16 5.0 11.0 0.00 0.01 0.01 71 1008.2
20260902100025 65 52 7.0 15.0 0.00 0.01 0.01 72 1008.3
20260902094524 65 50 8.0 15.0 0.00 0.01 0.01 74 1008.4
20260902093029 64 59 9.0 16.0 0.00 0.01 0.01 75 1008.5
20260902091517 62 33 7.0 13.0 0.00 0.01 0.01 79 1008.5
20260902090016 61 56 7.0 15.0 0.00 0.01 0.01 80 1008.6
20260902084520 62 48 8.0 17.0 0.00 0.01 0.01 79 1008.6
20260902083015 61 52 8.0 18.0 0.00 0.01 0.01 79 1008.6
20260902081511 62 53 7.0 14.0 0.00 0.01 0.01 80 1008.5
20260902080009 61 54 6.0 12.0 0.00 0.01 0.01 80 1008.5
20260902074506 60 22 8.0 15.0 0.00 0.01 0.01 80 1008.6
20260902073005 60 15 10.0 16.0 0.00 0.01 0.01 80 1008.6
20260902071502 59 54 10.0 15.0 0.00 0.01 0.01 81 1008.5
20260902070100 58 39 9.0 13.0 0.00 0.01 0.01 81 1008.5
20260902064558 58 52 6.0 14.0 0.00 0.01 0.01 81 1008.3
20260902063056 58 25 7.0 14.0 0.00 0.01 0.01 81 1008.4
20260902060059 56 47 5.0 11.0 0.01 0.01 0.01 79 1008.3
20260902054610 55 68 4.0 10.0 0.01 0.01 0.01 77 1008.3
20260902053102 55 26 4.0 8.0 0.01 0.01 0.01 76 1008.4
20260902051550 54 5 2.0 8.0 0.00 0.00 0.00 76 1008.5
20260902050055 54 40 3.0 8.0 0.00 0.00 0.00 74 1008.5
20260902044552 53 56 4.0 8.0 0.00 0.00 0.00 73 1008.5
20260902043047 52 44 4.0 8.0 0.00 0.00 0.00 69 1008.4
20260902041546 52 40 5.0 8.0 0.00 0.00 0.00 67 1008.4
20260902040048 52 37 4.0 9.0 0.00 0.00 0.00 66 1008.4
20260902034541 52 49 1.0 6.0 0.00 0.00 0.00 65 1008.5
20260902033039 52 55 4.0 9.0 0.00 0.00 0.00 55 1008.5
20260902031543 52 54 2.0 6.0 0.00 0.00 0.00 53 1008.5
20260902030036 51 44 0.0 2.0 0.00 0.00 0.00 57 1008.4
20260902024539 52 27 0.0 5.0 0.00 0.00 0.00 56 1008.5
20260902023036 52 39 1.0 3.0 0.00 0.00 0.00 56 1008.5
20260902021531 52 52 0.0 1.0 0.00 0.00 0.00 58 1008.5
20260902020030 52 52 0.0 3.0 0.00 0.00 0.00 60 1008.5